This is the latest recevied weather packets stored in our database for station/object KD2ZLA. If no packets are shown the sender has not sent any weather packets the latest 10 day(s).
| Time | Temp. | Humidity | Pressure | Rain* | Wind** | Luminosity | Snow |
|---|---|---|---|---|---|---|---|
| 1777950802 | 16.11° C | 52% | 1002.4 hPa | 0 mm | - | 0 W/m² | - |
| 1777950499 | 16.11° C | 52% | 1002.1 hPa | 0 mm | - | 0 W/m² | - |
| 1777950195 | 15.56° C | 53% | 1002.3 hPa | 0 mm | - | 0 W/m² | - |
| 1777949890 | 15.56° C | 53% | 1002.4 hPa | 0 mm | - | 0 W/m² | - |
| 1777949588 | 16.11° C | 52% | 1002.3 hPa | 0 mm | - | 0 W/m² | - |
| 1777949287 | 16.11° C | 52% | 1002.3 hPa | 0 mm | - | 0 W/m² | - |
| 1777948984 | 16.11° C | 53% | 1002.5 hPa | 0 mm | - | 0 W/m² | - |
| 1777948681 | 16.11° C | 52% | 1002.6 hPa | 0 mm | - | 0 W/m² | - |
| 1777948378 | 16.11° C | 52% | 1002.7 hPa | 0 mm | - | 0 W/m² | - |
| 1777948075 | 16.11° C | 51% | 1002.7 hPa | 0 mm | - | 0 W/m² | - |
| 1777947772 | 16.11° C | 52% | 1002.8 hPa | 0 mm | - | 0 W/m² | - |
| 1777947469 | 16.11° C | 51% | 1002.8 hPa | 0 mm | - | 0 W/m² | - |
| 1777947166 | 16.11° C | 51% | 1002.6 hPa | 0 mm | - | 0 W/m² | - |
| 1777946862 | 15.56° C | 53% | 1002.8 hPa | 0 mm | - | 0 W/m² | - |
| 1777946557 | 16.11° C | 52% | 1002.9 hPa | 0 mm | - | 0 W/m² | - |
| 1777946255 | 15.56° C | 53% | 1002.7 hPa | 0 mm | - | 0 W/m² | - |
| 1777945951 | 15.56° C | 55% | 1002.7 hPa | 0 mm | - | 0 W/m² | - |
| 1777945648 | 15.56° C | 54% | 1002.7 hPa | 0 mm | - | 0 W/m² | - |
| 1777945346 | 15.56° C | 54% | 1002.9 hPa | 0 mm | - | 0 W/m² | - |
| 1777945042 | 15.56° C | 53% | 1002.8 hPa | 0 mm | - | 0 W/m² | - |
| 1777944739 | 16.11° C | 53% | 1002.7 hPa | 0 mm | - | 0 W/m² | - |
| 1777944438 | 16.67° C | 50% | 1002.7 hPa | 0 mm | - | 0 W/m² | - |
| 1777944135 | 16.67° C | 51% | 1002.9 hPa | 0 mm | - | 0 W/m² | - |
| 1777943830 | 17.22° C | 49% | 1002.8 hPa | 0 mm | - | 0 W/m² | - |
| 1777943528 | 17.22° C | 48% | 1002.7 hPa | 0 mm | - | 0 W/m² | - |
* Rain latest hour (hover to see other rain measurements)
** Current wind speed in m/s (hover to see current wind gust speed)